Weather History for Newark, NJ

Change the Weather History Date:

Wednesday, November 3, 2010

  Actual Average Record
Temperature  
Mean Temperature 45 °F 51 °F  
Max Temperature 54 °F 59 °F 81 °F (2003)
Min Temperature 36 °F 43 °F 29 °F (1951)
Degree Days  
Heating Degree Days 20 14  
Month to date heating degree days 61 42  
Since 1 July heating degree days 273 363  
Cooling Degree Days 0 0  
Month to date cooling degree days 0 0  
Year to date cooling degree days 1671 1191  
Moisture  
Dew Point 34 °F    
Average Humidity 61    
Maximum Humidity 76    
Minimum Humidity 45    
Precipitation  
Precipitation T in 0.12 in 2.05 in (1992)
Month to date precipitation T 0.36  
Year to date precipitation 37.77 39.15  
Snow  
Snow 0.00 in 0.00 in T in (1951)
Month to date snowfall 0.0 0.0  
Since 1 July snowfall 0.0 0.0  
Snow Depth 0.00 in    
Sea Level Pressure  
Sea Level Pressure 30.17 in    
Wind  
Wind Speed 5 mph (South)    
Max Wind Speed 14 mph    
Max Gust Speed 21 mph    
Visibility 10 miles    
Events      
T = Trace of Precipitation, MM = Missing Value Source: NWS Daily Summary

Daily Weather History Graph

Daily Weather History Graph

Search for Another Location

Airport:

Trip Planner

Search our weather history database for the weather conditions in past years. The results will help you decide how hot, cold, wet, or windy it might be!

Date:

Astronomy

Nov. 03, 2010 Rise Set
Actual Time 7:29 AM EDT 5:50 PM EDT
Civil Twilight 7:00 AM EDT 6:19 PM EDT
Nautical Twilight 6:28 AM EDT 6:51 PM EDT
Astronomical Twilight 5:56 AM EDT 7:23 PM EDT
Moon 4:24 AM EDT (11/3) 4:00 PM EDT (11/3)
Length of Visible Light 11h 18m
Length of Day
10h 21m
Waning Crescent, 9% of the Moon is Illuminated
Nov 3
Waning Crescent
Nov 6
New
Nov 13
First Quarter
Nov 21
Full
Nov 28
Last Quarter

Hourly Weather History & Observations

Time (EDT) Temp. Windchill Dew Point Humidity Pressure Visibility Wind Dir Wind Speed Gust Speed Precip Events Conditions
12:51 AM 39.9 °F 36.7 °F 28.9 °F 65% 30.34 in 10.0 mi SW 4.6 mph - N/A   Partly Cloudy
1:51 AM 39.9 °F 36.7 °F 30.0 °F 68% 30.33 in 10.0 mi SW 4.6 mph - N/A   Partly Cloudy
2:51 AM 39.9 °F - 30.0 °F 68% 30.30 in 10.0 mi Calm Calm - N/A   Mostly Cloudy
3:51 AM 39.0 °F - 30.0 °F 70% 30.29 in 10.0 mi Calm Calm - N/A   Mostly Cloudy
4:51 AM 39.0 °F - 28.9 °F 67% 30.28 in 10.0 mi Calm Calm - N/A   Mostly Cloudy
5:51 AM 39.0 °F 36.8 °F 30.0 °F 70% 30.28 in 10.0 mi WSW 3.5 mph - N/A   Scattered Clouds
6:51 AM 39.0 °F - 30.0 °F 70% 30.27 in 10.0 mi Calm Calm - N/A   Scattered Clouds
7:51 AM 37.0 °F 33.3 °F 30.0 °F 76% 30.27 in 10.0 mi North 4.6 mph - N/A   Scattered Clouds
8:51 AM 42.1 °F 40.2 °F 32.0 °F 67% 30.28 in 9.0 mi North 3.5 mph - N/A   Scattered Clouds
9:51 AM 46.9 °F - 32.0 °F 56% 30.27 in 9.0 mi Calm Calm - N/A   Scattered Clouds
10:51 AM 48.9 °F - 30.9 °F 50% 30.24 in 9.0 mi Calm Calm - N/A   Scattered Clouds
11:51 AM 52.0 °F - 33.1 °F 49% 30.22 in 10.0 mi South 11.5 mph - N/A   Partly Cloudy
12:51 PM 52.0 °F - 33.1 °F 49% 30.17 in 10.0 mi South 10.4 mph 16.1 mph N/A   Partly Cloudy
1:51 PM 53.1 °F - 32.0 °F 45% 30.13 in 10.0 mi South 10.4 mph - N/A   Partly Cloudy
2:51 PM 53.1 °F - 35.1 °F 50% 30.11 in 10.0 mi SE 10.4 mph - N/A   Scattered Clouds
3:51 PM 53.1 °F - 36.0 °F 52% 30.09 in 10.0 mi SE 11.5 mph - N/A   Scattered Clouds
4:51 PM 52.0 °F - 36.0 °F 54% 30.07 in 10.0 mi SE 10.4 mph - N/A   Scattered Clouds
5:51 PM 51.1 °F - 37.0 °F 59% 30.05 in 10.0 mi SSE 8.1 mph - N/A   Scattered Clouds
6:51 PM 50.0 °F - 37.0 °F 61% 30.05 in 10.0 mi SSE 10.4 mph - N/A   Scattered Clouds
7:51 PM 48.9 °F - 37.9 °F 66% 30.04 in 10.0 mi South 6.9 mph - N/A   Scattered Clouds
8:51 PM 46.9 °F - 37.9 °F 71% 30.03 in 10.0 mi South 4.6 mph - N/A   Scattered Clouds
9:51 PM 48.2 °F - 39.2 °F 71% 30.00 in 10.0 mi Calm Calm - N/A   Mostly Cloudy
10:51 PM 48.0 °F - 39.0 °F 71% 30.01 in 10.0 mi SSW 3.5 mph - N/A   Mostly Cloudy
11:51 PM 48.9 °F - 39.9 °F 71% 29.99 in 10.0 mi Calm Calm - N/A   Overcast